| time (UTC) | temp C | wind direction | speed KPH | gust KPH | rain 1hr cm | rain 24hr cm | rain mn cm | humidity % | barometer mb |
| 20260507070527 | 10 | 0 | 0.0 | 1.6 | 0.00 | 0.51 | 0.03 | 92 | 1006.1 |
| 20260507070043 | 10 | 0 | 0.0 | 0.0 | 0.00 | 0.51 | 0.03 | 92 | 1006.2 |
| 20260507065525 | 10 | 0 | 0.0 | 0.0 | 0.00 | 0.51 | 0.03 | 92 | 1006.1 |
| 20260507065028 | 10 | 0 | 0.0 | 0.0 | 0.00 | 0.51 | 0.03 | 92 | 1006.0 |
| 20260507064601 | 10 | 0 | 0.0 | 1.6 | 0.00 | 0.51 | 0.03 | 92 | 1006.0 |
| 20260507064027 | 10 | 0 | 0.0 | 1.6 | 0.00 | 0.51 | 0.03 | 91 | 1005.9 |
| 20260507063527 | 10 | 0 | 0.0 | 3.2 | 0.00 | 0.51 | 0.03 | 91 | 1006.2 |
| 20260507063037 | 10 | 0 | 0.0 | 3.2 | 0.00 | 0.51 | 0.03 | 91 | 1006.1 |
| 20260507062530 | 10 | 0 | 0.0 | 1.6 | 0.00 | 0.51 | 0.03 | 91 | 1006.2 |
| 20260507062026 | 10 | 0 | 0.0 | 1.6 | 0.00 | 0.51 | 0.03 | 91 | 1006.2 |
| 20260507061540 | 10 | 0 | 0.0 | 6.4 | 0.00 | 0.51 | 0.03 | 91 | 1006.1 |
| 20260507061024 | 10 | 0 | 0.0 | 6.4 | 0.00 | 0.51 | 0.03 | 90 | 1006.0 |
| 20260507060524 | 10 | 0 | 1.6 | 6.4 | 0.00 | 0.51 | 0.03 | 90 | 1006.1 |
| 20260507060051 | 11 | 0 | 0.0 | 8.0 | 0.00 | 0.51 | 0.03 | 90 | 1006.2 |
| 20260507055526 | 11 | 346 | 1.6 | 8.0 | 0.00 | 0.51 | 0.03 | 90 | 1006.1 |
| 20260507055028 | 11 | 82 | 0.0 | 4.8 | 0.00 | 0.51 | 0.03 | 91 | 1006.2 |
| 20260507054536 | 11 | 17 | 1.6 | 4.8 | 0.00 | 0.51 | 0.03 | 91 | 1006.3 |
| 20260507054024 | 11 | 325 | 1.6 | 8.0 | 0.00 | 0.51 | 0.03 | 92 | 1006.4 |
| 20260507053524 | 11 | 343 | 1.6 | 8.0 | 0.00 | 0.51 | 0.03 | 92 | 1006.8 |
| 20260507053044 | 11 | 360 | 1.6 | 6.4 | 0.00 | 0.51 | 0.03 | 92 | 1006.5 |
| 20260507052527 | 11 | 334 | 0.0 | 4.8 | 0.00 | 0.51 | 0.03 | 93 | 1006.5 |
| 20260507052025 | 12 | 0 | 0.0 | 3.2 | 0.00 | 0.51 | 0.03 | 93 | 1006.5 |
| 20260507051553 | 12 | 8 | 0.0 | 3.2 | 0.00 | 0.51 | 0.03 | 93 | 1006.6 |
| 20260507051026 | 12 | 290 | 0.0 | 3.2 | 0.00 | 0.51 | 0.03 | 93 | 1006.6 |
| 20260507050527 | 12 | 0 | 0.0 | 3.2 | 0.00 | 0.51 | 0.03 | 93 | 1006.6 |
| 20260507050044 | 12 | 0 | 0.0 | 6.4 | 0.03 | 0.51 | 0.03 | 93 | 1006.5 |
| 20260507045524 | 12 | 7 | 1.6 | 6.4 | 0.05 | 0.51 | 0.03 | 93 | 1006.4 |
| 20260507045026 | 12 | 82 | 0.0 | 8.0 | 0.05 | 0.51 | 0.03 | 93 | 1006.5 |
| 20260507044539 | 12 | 15 | 1.6 | 8.0 | 0.05 | 0.51 | 0.03 | 93 | 1006.6 |
| 20260507044023 | 12 | 0 | 1.6 | 3.2 | 0.05 | 0.51 | 0.03 | 93 | 1006.6 |
| 20260507043526 | 12 | 25 | 0.0 | 4.8 | 0.05 | 0.51 | 0.03 | 92 | 1006.5 |
| 20260507043041 | 12 | 16 | 0.0 | 9.7 | 0.05 | 0.51 | 0.03 | 93 | 1006.3 |
| 20260507042523 | 12 | 0 | 0.0 | 9.7 | 0.05 | 0.51 | 0.03 | 92 | 1006.4 |
| 20260507042024 | 12 | 14 | 1.6 | 6.4 | 0.05 | 0.51 | 0.03 | 92 | 1006.3 |
| 20260507041537 | 13 | 51 | 1.6 | 8.0 | 0.05 | 0.51 | 0.03 | 92 | 1006.4 |
| 20260507041027 | 13 | 359 | 1.6 | 8.0 | 0.05 | 0.51 | 0.03 | 92 | 1006.2 |
| 20260507040525 | 13 | 356 | 1.6 | 8.0 | 0.05 | 0.51 | 0.03 | 92 | 1006.4 |
| 20260507040042 | 13 | 300 | 0.0 | 4.8 | 0.03 | 0.48 | 0.00 | 93 | 1006.4 |
| 20260507035526 | 14 | 333 | 0.0 | 8.0 | 0.00 | 0.46 | 0.46 | 93 | 1006.4 |
| 20260507035025 | 14 | 0 | 1.6 | 8.0 | 0.00 | 0.46 | 0.46 | 93 | 1006.4 |
| 20260507034538 | 14 | 288 | 3.2 | 8.0 | 0.00 | 0.46 | 0.46 | 94 | 1006.2 |
| 20260507034024 | 14 | 68 | 0.0 | 3.2 | 0.03 | 0.46 | 0.46 | 94 | 1006.1 |
| 20260507033528 | 14 | 11 | 0.0 | 3.2 | 0.03 | 0.46 | 0.46 | 94 | 1005.9 |
| 20260507033038 | 14 | 0 | 0.0 | 3.2 | 0.03 | 0.46 | 0.46 | 94 | 1005.8 |
| 20260507032526 | 14 | 0 | 0.0 | 3.2 | 0.03 | 0.46 | 0.46 | 94 | 1005.9 |
| 20260507032024 | 14 | 0 | 0.0 | 3.2 | 0.03 | 0.46 | 0.46 | 94 | 1006.0 |
| 20260507031538 | 14 | 43 | 0.0 | 3.2 | 0.03 | 0.46 | 0.46 | 95 | 1005.6 |
| 20260507031023 | 14 | 217 | 0.0 | 3.2 | 0.03 | 0.46 | 0.46 | 95 | 1005.6 |
| 20260507030527 | 14 | 184 | 0.0 | 3.2 | 0.03 | 0.46 | 0.46 | 95 | 1005.3 |
| 20260507030042 | 14 | 193 | 1.6 | 3.2 | 0.03 | 0.46 | 0.46 | 95 | 1005.3 |
| 20260507025528 | 14 | 247 | 0.0 | 4.8 | 0.03 | 0.46 | 0.46 | 95 | 1005.3 |
| 20260507025027 | 14 | 240 | 0.0 | 4.8 | 0.03 | 0.46 | 0.46 | 95 | 1005.3 |
| 20260507024542 | 14 | 0 | 0.0 | 4.8 | 0.03 | 0.46 | 0.46 | 95 | 1005.4 |
| 20260507024026 | 14 | 143 | 0.0 | 4.8 | 0.00 | 0.43 | 0.43 | 94 | 1005.3 |
| 20260507023526 | 14 | 259 | 0.0 | 4.8 | 0.00 | 0.43 | 0.43 | 94 | 1005.4 |
| 20260507023042 | 14 | 140 | 0.0 | 3.2 | 0.00 | 0.43 | 0.43 | 94 | 1005.3 |
| 20260507022527 | 14 | 122 | 0.0 | 4.8 | 0.00 | 0.43 | 0.43 | 94 | 1005.3 |
| 20260507022029 | 14 | 0 | 0.0 | 4.8 | 0.00 | 0.43 | 0.43 | 94 | 1005.3 |
| 20260507021541 | 14 | 0 | 0.0 | 6.4 | 0.00 | 0.43 | 0.43 | 94 | 1005.2 |
| 20260507021028 | 14 | 0 | 1.6 | 6.4 | 0.00 | 0.43 | 0.43 | 94 | 1005.1 |
| 20260507020525 | 14 | 136 | 0.0 | 4.8 | 0.00 | 0.43 | 0.43 | 94 | 1005.0 |
| 20260507020044 | 14 | 0 | 1.6 | 4.8 | 0.00 | 0.43 | 0.43 | 94 | 1005.0 |
| 20260507015528 | 14 | 129 | 0.0 | 4.8 | 0.00 | 0.43 | 0.43 | 94 | 1005.2 |
| 20260507015029 | 14 | 0 | 0.0 | 6.4 | 0.00 | 0.43 | 0.43 | 94 | 1005.2 |
| 20260507014547 | 14 | 0 | 0.0 | 6.4 | 0.00 | 0.43 | 0.43 | 94 | 1005.2 |
| 20260507014026 | 14 | 94 | 1.6 | 6.4 | 0.00 | 0.43 | 0.43 | 94 | 1005.2 |
| 20260507013524 | 14 | 252 | 0.0 | 4.8 | 0.00 | 0.43 | 0.43 | 94 | 1005.2 |
| 20260507013041 | 14 | 93 | 0.0 | 6.4 | 0.00 | 0.43 | 0.43 | 94 | 1005.2 |
| 20260507012525 | 14 | 0 | 1.6 | 6.4 | 0.00 | 0.43 | 0.43 | 95 | 1005.1 |
| 20260507012029 | 14 | 214 | 0.0 | 6.4 | 0.00 | 0.43 | 0.43 | 95 | 1005.2 |
| 20260507011541 | 14 | 265 | 1.6 | 6.4 | 0.00 | 0.43 | 0.43 | 95 | 1005.2 |
| 20260507011025 | 14 | 288 | 0.0 | 6.4 | 0.00 | 0.43 | 0.43 | 95 | 1005.2 |
| 20260507010527 | 14 | 179 | 0.0 | 6.4 | 0.00 | 0.43 | 0.43 | 95 | 1005.2 |
| 20260507010051 | 14 | 28 | 0.0 | 14.5 | 0.00 | 0.43 | 0.43 | 95 | 1005.2 |
| 20260507005528 | 14 | 252 | 0.0 | 14.5 | 0.00 | 0.43 | 0.43 | 95 | 1005.3 |
| 20260507005032 | 14 | 103 | 1.6 | 11.3 | 0.00 | 0.43 | 0.43 | 95 | 1005.3 |
| 20260507004537 | 14 | 181 | 1.6 | 8.0 | 0.00 | 0.43 | 0.43 | 95 | 1005.3 |
| 20260507004026 | 14 | 201 | 0.0 | 3.2 | 0.00 | 0.43 | 0.43 | 95 | 1005.3 |
| 20260507003528 | 14 | 0 | 0.0 | 6.4 | 0.00 | 0.43 | 0.43 | 95 | 1005.2 |
| 20260507003039 | 14 | 292 | 0.0 | 6.4 | 0.00 | 0.43 | 0.43 | 95 | 1005.2 |
| 20260507002525 | 14 | 274 | 1.6 | 6.4 | 0.00 | 0.43 | 0.43 | 95 | 1005.2 |
| 20260507002033 | 14 | 115 | 0.0 | 3.2 | 0.00 | 0.43 | 0.43 | 95 | 1005.2 |
| 20260507001537 | 14 | 163 | 0.0 | 4.8 | 0.00 | 0.43 | 0.43 | 94 | 1005.2 |
| 20260507001024 | 14 | 262 | 0.0 | 9.7 | 0.00 | 0.43 | 0.43 | 94 | 1005.1 |
| 20260507000525 | 14 | 212 | 1.6 | 11.3 | 0.03 | 0.43 | 0.43 | 94 | 1005.2 |
| 20260507000042 | 14 | 0 | 1.6 | 11.3 | 0.05 | 0.43 | 0.43 | 94 | 1005.1 |
| 20260506235527 | 14 | 0 | 0.0 | 6.4 | 0.10 | 0.43 | 0.43 | 94 | 1005.0 |
| 20260506235029 | 14 | 0 | 1.6 | 6.4 | 0.13 | 0.43 | 0.43 | 94 | 1005.0 |
| 20260506234534 | 14 | 41 | 0.0 | 3.2 | 0.13 | 0.43 | 0.43 | 94 | 1005.0 |
| 20260506234026 | 15 | 148 | 0.0 | 3.2 | 0.13 | 0.43 | 0.43 | 94 | 1005.0 |
| 20260506233528 | 15 | 0 | 0.0 | 3.2 | 0.13 | 0.43 | 0.43 | 94 | 1005.1 |
| 20260506233037 | 15 | 254 | 0.0 | 1.6 | 0.15 | 0.43 | 0.43 | 94 | 1005.0 |
| 20260506232526 | 15 | 281 | 0.0 | 3.2 | 0.15 | 0.43 | 0.43 | 94 | 1005.0 |
| 20260506232028 | 15 | 274 | 0.0 | 8.0 | 0.15 | 0.43 | 0.43 | 94 | 1005.0 |
| 20260506231551 | 15 | 98 | 0.0 | 8.0 | 0.15 | 0.43 | 0.43 | 93 | 1004.9 |
| 20260506231028 | 15 | 0 | 0.0 | 9.7 | 0.15 | 0.43 | 0.43 | 93 | 1005.0 |
| 20260506230526 | 15 | 128 | 1.6 | 9.7 | 0.13 | 0.41 | 0.41 | 93 | 1005.1 |
| 20260506230052 | 15 | 162 | 1.6 | 9.7 | 0.08 | 0.36 | 0.36 | 93 | 1005.0 |
| 20260506225526 | 15 | 0 | 0.0 | 3.2 | 0.08 | 0.33 | 0.33 | 93 | 1005.2 |
| 20260506225025 | 15 | 0 | 0.0 | 6.4 | 0.05 | 0.30 | 0.30 | 93 | 1005.1 |
| 20260506224543 | 15 | 147 | 1.6 | 9.7 | 0.05 | 0.30 | 0.30 | 93 | 1005.2 |
| 20260506224029 | 15 | 141 | 0.0 | 9.7 | 0.05 | 0.30 | 0.30 | 92 | 1005.2 |
| 20260506223524 | 15 | 278 | 1.6 | 9.7 | 0.05 | 0.30 | 0.30 | 92 | 1005.1 |
| 20260506223045 | 15 | 0 | 1.6 | 6.4 | 0.03 | 0.28 | 0.28 | 92 | 1005.1 |
| 20260506222525 | 15 | 279 | 0.0 | 3.2 | 0.03 | 0.28 | 0.28 | 92 | 1005.2 |
| 20260506222028 | 15 | 198 | 0.0 | 6.4 | 0.03 | 0.28 | 0.28 | 92 | 1005.2 |
| 20260506221558 | 15 | 143 | 0.0 | 6.4 | 0.03 | 0.28 | 0.28 | 92 | 1005.3 |
| 20260506221028 | 15 | 209 | 0.0 | 4.8 | 0.03 | 0.28 | 0.28 | 92 | 1005.3 |
| 20260506220526 | 15 | 177 | 1.6 | 9.7 | 0.03 | 0.28 | 0.28 | 92 | 1005.4 |
| 20260506220050 | 15 | 168 | 1.6 | 9.7 | 0.03 | 0.28 | 0.28 | 92 | 1005.4 |
| 20260506215531 | 15 | 193 | 1.6 | 4.8 | 0.00 | 0.25 | 0.25 | 92 | 1005.5 |
| 20260506215027 | 15 | 267 | 0.0 | 6.4 | 0.00 | 0.25 | 0.25 | 91 | 1005.4 |
| 20260506214540 | 15 | 0 | 0.0 | 6.4 | 0.03 | 0.25 | 0.25 | 91 | 1005.4 |
| 20260506214024 | 15 | 191 | 1.6 | 6.4 | 0.03 | 0.25 | 0.25 | 91 | 1005.5 |
| 20260506213525 | 15 | 169 | 1.6 | 6.4 | 0.03 | 0.25 | 0.25 | 91 | 1005.6 |
| 20260506213039 | 15 | 214 | 1.6 | 6.4 | 0.03 | 0.25 | 0.25 | 91 | 1005.6 |
| 20260506212528 | 15 | 232 | 1.6 | 6.4 | 0.05 | 0.25 | 0.25 | 91 | 1005.7 |
| 20260506212025 | 15 | 163 | 1.6 | 8.0 | 0.05 | 0.25 | 0.25 | 91 | 1005.7 |
| 20260506211541 | 15 | 120 | 1.6 | 8.0 | 0.08 | 0.25 | 0.25 | 91 | 1005.9 |
| 20260506211028 | 15 | 177 | 1.6 | 6.4 | 0.08 | 0.25 | 0.25 | 91 | 1006.0 |
| 20260506210527 | 15 | 214 | 1.6 | 12.9 | 0.08 | 0.25 | 0.25 | 90 | 1005.9 |
| 20260506210052 | 15 | 0 | 1.6 | 12.9 | 0.10 | 0.25 | 0.25 | 91 | 1005.9 |
| 20260506205529 | 15 | 0 | 1.6 | 14.5 | 0.10 | 0.25 | 0.25 | 90 | 1006.0 |
| 20260506205027 | 15 | 202 | 1.6 | 14.5 | 0.10 | 0.25 | 0.25 | 90 | 1006.1 |
| 20260506204541 | 15 | 84 | 1.6 | 3.2 | 0.08 | 0.23 | 0.23 | 90 | 1006.1 |
| 20260506204027 | 15 | 236 | 0.0 | 8.0 | 0.08 | 0.23 | 0.23 | 90 | 1006.1 |
| 20260506203526 | 15 | 271 | 1.6 | 8.0 | 0.08 | 0.23 | 0.23 | 90 | 1006.1 |
| 20260506203039 | 15 | 283 | 0.0 | 6.4 | 0.10 | 0.23 | 0.23 | 90 | 1006.2 |
| 20260506202528 | 15 | 278 | 1.6 | 8.0 | 0.08 | 0.20 | 0.20 | 89 | 1006.2 |
| 20260506202030 | 16 | 273 | 1.6 | 14.5 | 0.10 | 0.20 | 0.20 | 89 | 1006.2 |
| 20260506201542 | 16 | 146 | 1.6 | 14.5 | 0.08 | 0.18 | 0.18 | 88 | 1006.1 |
| 20260506201028 | 16 | 200 | 1.6 | 12.9 | 0.08 | 0.18 | 0.18 | 88 | 1006.0 |
| 20260506200527 | 16 | 0 | 1.6 | 12.9 | 0.10 | 0.18 | 0.18 | 88 | 1006.1 |
| 20260506200037 | 16 | 270 | 0.0 | 11.3 | 0.08 | 0.15 | 0.15 | 88 | 1006.1 |
| 20260506195528 | 16 | 276 | 0.0 | 11.3 | 0.10 | 0.15 | 0.15 | 88 | 1006.1 |
| 20260506195027 | 16 | 202 | 0.0 | 6.4 | 0.13 | 0.15 | 0.15 | 88 | 1006.2 |
| 20260506194540 | 16 | 0 | 1.6 | 6.4 | 0.15 | 0.15 | 0.15 | 87 | 1006.2 |
| 20260506194031 | 16 | 151 | 0.0 | 16.1 | 0.15 | 0.15 | 0.15 | 88 | 1006.1 |
| 20260506193525 | 17 | 0 | 3.2 | 16.1 | 0.15 | 0.15 | 0.15 | 87 | 1006.2 |
| 20260506193038 | 17 | 288 | 1.6 | 3.2 | 0.13 | 0.13 | 0.13 | 87 | 1006.2 |
| 20260506192527 | 17 | 0 | 0.0 | 6.4 | 0.13 | 0.13 | 0.13 | 86 | 1006.1 |
| 20260506192030 | 17 | 0 | 0.0 | 6.4 | 0.10 | 0.10 | 0.10 | 85 | 1006.1 |
| 20260506191538 | 17 | 284 | 0.0 | 9.7 | 0.10 | 0.10 | 0.10 | 84 | 1006.1 |
| 20260506191027 | 17 | 272 | 0.0 | 22.5 | 0.10 | 0.10 | 0.10 | 82 | 1006.1 |
| 20260506190528 | 17 | 131 | 1.6 | 22.5 | 0.08 | 0.08 | 0.08 | 81 | 1006.2 |
| 20260506190036 | 18 | 288 | 1.6 | 8.0 | 0.08 | 0.08 | 0.08 | 79 | 1006.3 |
| 20260506185529 | 18 | 213 | 0.0 | 4.8 | 0.05 | 0.05 | 0.05 | 78 | 1006.3 |
| 20260506185029 | 18 | 119 | 0.0 | 11.3 | 0.03 | 0.03 | 0.03 | 75 | 1006.2 |
| 20260506184556 | 19 | 265 | 1.6 | 14.5 | 0.00 | 0.00 | 0.00 | 73 | 1006.4 |
| 20260506184028 | 19 | 262 | 4.8 | 14.5 | 0.00 | 0.00 | 0.00 | 71 | 1006.5 |
| 20260506183528 | 19 | 262 | 3.2 | 14.5 | 0.00 | 0.00 | 0.00 | 70 | 1006.4 |
| 20260506183039 | 20 | 224 | 4.8 | 14.5 | 0.00 | 0.00 | 0.00 | 68 | 1006.4 |
| 20260506182527 | 20 | 231 | 3.2 | 24.1 | 0.00 | 0.00 | 0.00 | 68 | 1006.4 |
| 20260506182030 | 20 | 181 | 4.8 | 24.1 | 0.00 | 0.00 | 0.00 | 65 | 1006.4 |
| 20260506181540 | 21 | 184 | 3.2 | 24.1 | 0.00 | 0.00 | 0.00 | 62 | 1006.4 |
| 20260506181030 | 21 | 167 | 4.8 | 22.5 | 0.00 | 0.00 | 0.00 | 60 | 1006.4 |
| 20260506180527 | 21 | 266 | 3.2 | 22.5 | 0.00 | 0.00 | 0.00 | 59 | 1006.4 |
| 20260506180047 | 21 | 221 | 4.8 | 22.5 | 0.00 | 0.00 | 0.00 | 57 | 1006.4 |
| 20260506175527 | 22 | 219 | 1.6 | 14.5 | 0.00 | 0.00 | 0.00 | 57 | 1006.5 |
| 20260506175028 | 22 | 200 | 4.8 | 14.5 | 0.00 | 0.00 | 0.00 | 57 | 1006.5 |
| 20260506174537 | 22 | 175 | 3.2 | 12.9 | 0.00 | 0.00 | 0.00 | 56 | 1006.4 |
| 20260506174026 | 22 | 152 | 3.2 | 20.9 | 0.00 | 0.00 | 0.00 | 55 | 1006.4 |
| 20260506173525 | 22 | 255 | 4.8 | 20.9 | 0.00 | 0.00 | 0.00 | 55 | 1006.5 |
| 20260506173047 | 22 | 155 | 4.8 | 20.9 | 0.00 | 0.00 | 0.00 | 55 | 1006.4 |
| 20260506172528 | 22 | 123 | 8.0 | 20.9 | 0.00 | 0.00 | 0.00 | 55 | 1006.5 |
| 20260506172030 | 22 | 219 | 4.8 | 17.7 | 0.00 | 0.00 | 0.00 | 55 | 1006.5 |
| 20260506171554 | 23 | 116 | 4.8 | 17.7 | 0.00 | 0.00 | 0.00 | 54 | 1006.3 |
| 20260506171026 | 23 | 104 | 1.6 | 11.3 | 0.00 | 0.00 | 0.00 | 55 | 1006.4 |
| 20260506170530 | 23 | 262 | 3.2 | 14.5 | 0.00 | 0.00 | 0.00 | 55 | 1006.4 |
| 20260506170043 | 23 | 175 | 4.8 | 14.5 | 0.00 | 0.00 | 0.00 | 56 | 1006.5 |
| 20260506165530 | 22 | 126 | 1.6 | 11.3 | 0.00 | 0.00 | 0.00 | 57 | 1006.6 |
| 20260506165028 | 22 | 257 | 3.2 | 19.3 | 0.00 | 0.00 | 0.00 | 57 | 1006.6 |
| 20260506164546 | 22 | 272 | 3.2 | 19.3 | 0.00 | 0.00 | 0.00 | 58 | 1006.8 |
| 20260506164026 | 21 | 258 | 1.6 | 19.3 | 0.00 | 0.00 | 0.00 | 59 | 1006.9 |
| 20260506163527 | 21 | 283 | 3.2 | 24.1 | 0.00 | 0.00 | 0.00 | 58 | 1007.0 |
| 20260506163042 | 21 | 99 | 3.2 | 24.1 | 0.00 | 0.00 | 0.00 | 59 | 1007.1 |
| 20260506162530 | 21 | 202 | 3.2 | 8.0 | 0.00 | 0.00 | 0.00 | 58 | 1007.1 |
| 20260506162026 | 21 | 244 | 1.6 | 14.5 | 0.00 | 0.00 | 0.00 | 60 | 1007.2 |
| 20260506161544 | 21 | 252 | 3.2 | 14.5 | 0.00 | 0.00 | 0.00 | 59 | 1007.3 |
| 20260506161027 | 21 | 245 | 3.2 | 17.7 | 0.00 | 0.00 | 0.00 | 59 | 1007.4 |
| 20260506160531 | 21 | 273 | 3.2 | 17.7 | 0.00 | 0.00 | 0.00 | 59 | 1007.6 |
| 20260506160057 | 21 | 150 | 3.2 | 16.1 | 0.00 | 0.00 | 0.00 | 59 | 1007.7 |
| 20260506155526 | 21 | 295 | 3.2 | 9.7 | 0.00 | 0.00 | 0.00 | 60 | 1007.6 |
| 20260506155027 | 21 | 232 | 1.6 | 14.5 | 0.00 | 0.00 | 0.00 | 60 | 1007.9 |
| 20260506154539 | 21 | 283 | 4.8 | 14.5 | 0.00 | 0.00 | 0.00 | 60 | 1007.9 |
| 20260506154029 | 21 | 283 | 1.6 | 14.5 | 0.00 | 0.00 | 0.00 | 60 | 1007.9 |
| 20260506153528 | 21 | 216 | 3.2 | 14.5 | 0.00 | 0.00 | 0.00 | 60 | 1007.9 |
| 20260506153035 | 21 | 276 | 1.6 | 9.7 | 0.00 | 0.00 | 0.00 | 59 | 1008.1 |
| 20260506152527 | 21 | 190 | 1.6 | 9.7 | 0.00 | 0.00 | 0.00 | 61 | 1008.3 |
| 20260506152027 | 22 | 240 | 3.2 | 9.7 | 0.00 | 0.00 | 0.00 | 60 | 1008.2 |
| 20260506151545 | 22 | 268 | 3.2 | 14.5 | 0.00 | 0.00 | 0.00 | 61 | 1008.3 |
| 20260506151025 | 21 | 161 | 1.6 | 14.5 | 0.00 | 0.00 | 0.00 | 61 | 1008.3 |
| 20260506150525 | 21 | 135 | 1.6 | 17.7 | 0.00 | 0.00 | 0.00 | 60 | 1008.5 |
| 20260506150035 | 21 | 181 | 3.2 | 17.7 | 0.00 | 0.00 | 0.00 | 62 | 1008.4 |
| 20260506145526 | 21 | 265 | 4.8 | 17.7 | 0.00 | 0.00 | 0.00 | 61 | 1008.5 |
| 20260506145027 | 21 | 139 | 1.6 | 12.9 | 0.00 | 0.00 | 0.00 | 63 | 1008.7 |
| 20260506144557 | 21 | 145 | 1.6 | 12.9 | 0.00 | 0.00 | 0.00 | 63 | 1008.6 |
| 20260506144030 | 21 | 282 | 3.2 | 14.5 | 0.00 | 0.00 | 0.00 | 62 | 1008.5 |
| 20260506143531 | 21 | 299 | 1.6 | 14.5 | 0.00 | 0.00 | 0.00 | 63 | 1008.7 |
| 20260506143039 | 21 | 186 | 3.2 | 9.7 | 0.00 | 0.00 | 0.00 | 62 | 1008.6 |
| 20260506142525 | 21 | 140 | 1.6 | 8.0 | 0.00 | 0.00 | 0.00 | 64 | 1008.5 |
| 20260506142024 | 21 | 193 | 3.2 | 12.9 | 0.00 | 0.00 | 0.00 | 62 | 1008.4 |
| 20260506141540 | 21 | 168 | 3.2 | 12.9 | 0.00 | 0.00 | 0.00 | 64 | 1008.3 |
| 20260506141024 | 21 | 174 | 4.8 | 12.9 | 0.00 | 0.00 | 0.00 | 64 | 1008.3 |
| 20260506140526 | 21 | 274 | 3.2 | 12.9 | 0.00 | 0.00 | 0.00 | 66 | 1008.3 |
| 20260506140043 | 21 | 207 | 4.8 | 12.9 | 0.00 | 0.00 | 0.00 | 64 | 1008.4 |
| 20260506135530 | 21 | 248 | 4.8 | 11.3 | 0.00 | 0.00 | 0.00 | 65 | 1008.4 |
| 20260506135024 | 20 | 274 | 1.6 | 6.4 | 0.00 | 0.00 | 0.00 | 68 | 1008.3 |
| 20260506134538 | 20 | 105 | 1.6 | 6.4 | 0.00 | 0.00 | 0.00 | 68 | 1008.5 |
| 20260506134027 | 20 | 292 | 1.6 | 8.0 | 0.00 | 0.00 | 0.00 | 69 | 1008.6 |
| 20260506133523 | 19 | 250 | 1.6 | 11.3 | 0.00 | 0.00 | 0.00 | 69 | 1008.6 |
| 20260506133040 | 19 | 174 | 1.6 | 11.3 | 0.00 | 0.00 | 0.00 | 70 | 1008.8 |
| 20260506132528 | 19 | 270 | 3.2 | 11.3 | 0.00 | 0.00 | 0.00 | 71 | 1008.9 |
| 20260506132023 | 18 | 133 | 1.6 | 12.9 | 0.00 | 0.00 | 0.00 | 70 | 1008.9 |
| 20260506131543 | 18 | 160 | 3.2 | 14.5 | 0.00 | 0.00 | 0.00 | 71 | 1009.0 |
| 20260506131027 | 18 | 168 | 3.2 | 14.5 | 0.00 | 0.00 | 0.00 | 71 | 1009.0 |
| 20260506130524 | 18 | 151 | 1.6 | 6.4 | 0.00 | 0.00 | 0.00 | 71 | 1008.9 |
| 20260506130037 | 18 | 152 | 1.6 | 4.8 | 0.00 | 0.00 | 0.00 | 73 | 1008.9 |
| 20260506125523 | 18 | 197 | 1.6 | 12.9 | 0.00 | 0.00 | 0.00 | 72 | 1008.9 |
| 20260506125026 | 18 | 262 | 3.2 | 12.9 | 0.00 | 0.00 | 0.00 | 72 | 1009.0 |
| 20260506124537 | 18 | 164 | 1.6 | 6.4 | 0.00 | 0.00 | 0.00 | 73 | 1009.0 |
| 20260506124030 | 18 | 203 | 3.2 | 8.0 | 0.00 | 0.00 | 0.00 | 72 | 1008.9 |
| 20260506123526 | 18 | 102 | 0.0 | 8.0 | 0.00 | 0.00 | 0.00 | 74 | 1008.8 |
| 20260506123036 | 18 | 135 | 1.6 | 8.0 | 0.00 | 0.00 | 0.00 | 74 | 1009.0 |
| 20260506122525 | 17 | 281 | 0.0 | 8.0 | 0.00 | 0.00 | 0.00 | 74 | 1008.9 |
| 20260506122026 | 17 | 202 | 1.6 | 11.3 | 0.00 | 0.00 | 0.00 | 75 | 1009.0 |
| 20260506121542 | 17 | 269 | 3.2 | 11.3 | 0.00 | 0.00 | 0.00 | 74 | 1009.1 |
| 20260506121027 | 17 | 223 | 1.6 | 14.5 | 0.00 | 0.00 | 0.00 | 74 | 1009.0 |
| 20260506120527 | 18 | 210 | 1.6 | 14.5 | 0.00 | 0.00 | 0.00 | 75 | 1008.9 |
| 20260506120039 | 17 | 248 | 1.6 | 14.5 | 0.00 | 0.00 | 0.00 | 76 | 1008.9 |
| 20260506115525 | 16 | 197 | 1.6 | 9.7 | 0.00 | 0.00 | 0.00 | 77 | 1009.0 |
| 20260506115023 | 16 | 222 | 1.6 | 9.7 | 0.00 | 0.00 | 0.00 | 78 | 1009.1 |
| 20260506114543 | 16 | 153 | 1.6 | 9.7 | 0.00 | 0.00 | 0.00 | 78 | 1009.1 |
| 20260506114026 | 16 | 167 | 1.6 | 8.0 | 0.00 | 0.00 | 0.00 | 78 | 1009.2 |
| 20260506113525 | 16 | 176 | 1.6 | 8.0 | 0.00 | 0.00 | 0.00 | 77 | 1009.2 |
| 20260506113038 | 16 | 264 | 1.6 | 6.4 | 0.00 | 0.00 | 0.00 | 77 | 1009.2 |
| 20260506112526 | 16 | 253 | 1.6 | 4.8 | 0.00 | 0.00 | 0.00 | 78 | 1009.5 |
| 20260506112026 | 16 | 154 | 1.6 | 6.4 | 0.00 | 0.00 | 0.00 | 78 | 1009.5 |
| 20260506111536 | 16 | 257 | 0.0 | 9.7 | 0.00 | 0.00 | 0.00 | 77 | 1009.4 |
| 20260506111028 | 16 | 263 | 3.2 | 9.7 | 0.00 | 0.00 | 0.00 | 77 | 1009.2 |
| 20260506110528 | 16 | 165 | 1.6 | 9.7 | 0.00 | 0.00 | 0.00 | 76 | 1009.2 |
| 20260506110042 | 16 | 165 | 1.6 | 6.4 | 0.00 | 0.00 | 0.00 | 77 | 1009.1 |
| 20260506105527 | 16 | 179 | 1.6 | 6.4 | 0.00 | 0.00 | 0.00 | 78 | 1009.2 |
| 20260506105027 | 16 | 244 | 0.0 | 12.9 | 0.00 | 0.00 | 0.00 | 79 | 1009.3 |
| 20260506104540 | 15 | 216 | 3.2 | 12.9 | 0.00 | 0.00 | 0.00 | 80 | 1009.3 |
| 20260506104027 | 15 | 217 | 1.6 | 6.4 | 0.00 | 0.00 | 0.00 | 81 | 1009.3 |
| 20260506103525 | 15 | 155 | 0.0 | 6.4 | 0.00 | 0.00 | 0.00 | 81 | 1009.3 |
| 20260506103039 | 15 | 179 | 1.6 | 6.4 | 0.00 | 0.00 | 0.00 | 81 | 1009.1 |
| 20260506102529 | 15 | 83 | 1.6 | 4.8 | 0.00 | 0.00 | 0.00 | 81 | 1009.1 |
| 20260506102026 | 15 | 116 | 1.6 | 4.8 | 0.00 | 0.00 | 0.00 | 81 | 1009.1 |
| 20260506101537 | 15 | 276 | 0.0 | 4.8 | 0.00 | 0.00 | 0.00 | 81 | 1009.1 |
| 20260506101025 | 15 | 215 | 0.0 | 3.2 | 0.00 | 0.00 | 0.00 | 80 | 1009.1 |
| 20260506100526 | 15 | 147 | 0.0 | 11.3 | 0.00 | 0.00 | 0.00 | 80 | 1009.0 |
| 20260506100100 | 15 | 269 | 1.6 | 11.3 | 0.00 | 0.00 | 0.00 | 80 | 1009.0 |
| 20260506095528 | 15 | 188 | 0.0 | 4.8 | 0.00 | 0.00 | 0.00 | 81 | 1009.0 |
| 20260506095028 | 15 | 215 | 0.0 | 9.7 | 0.00 | 0.00 | 0.00 | 81 | 1009.1 |
| 20260506094543 | 15 | 282 | 1.6 | 9.7 | 0.00 | 0.00 | 0.00 | 81 | 1009.0 |
| 20260506094028 | 15 | 209 | 0.0 | 6.4 | 0.00 | 0.00 | 0.00 | 80 | 1008.9 |
| 20260506093527 | 15 | 210 | 1.6 | 6.4 | 0.00 | 0.00 | 0.00 | 80 | 1008.9 |
| 20260506093038 | 15 | 155 | 0.0 | 4.8 | 0.00 | 0.00 | 0.00 | 80 | 1008.9 |
| 20260506092529 | 15 | 281 | 0.0 | 6.4 | 0.00 | 0.00 | 0.00 | 80 | 1009.0 |
| 20260506092026 | 15 | 91 | 1.6 | 6.4 | 0.00 | 0.00 | 0.00 | 80 | 1008.9 |
| 20260506091537 | 15 | 206 | 0.0 | 4.8 | 0.00 | 0.00 | 0.00 | 80 | 1009.1 |
| 20260506091025 | 15 | 179 | 0.0 | 3.2 | 0.00 | 0.00 | 0.00 | 79 | 1009.0 |
| 20260506090527 | 15 | 0 | 0.0 | 12.9 | 0.00 | 0.00 | 0.00 | 79 | 1008.9 |
| 20260506090044 | 15 | 221 | 1.6 | 12.9 | 0.00 | 0.00 | 0.00 | 79 | 1009.0 |
| 20260506085526 | 15 | 124 | 0.0 | 8.0 | 0.00 | 0.00 | 0.00 | 78 | 1009.1 |
| 20260506085028 | 15 | 283 | 1.6 | 8.0 | 0.00 | 0.00 | 0.00 | 78 | 1009.0 |
| 20260506084543 | 15 | 273 | 1.6 | 6.4 | 0.00 | 0.00 | 0.00 | 78 | 1009.1 |
| 20260506084027 | 15 | 155 | 1.6 | 16.1 | 0.00 | 0.00 | 0.00 | 78 | 1009.1 |
| 20260506083528 | 15 | 221 | 0.0 | 16.1 | 0.00 | 0.00 | 0.00 | 77 | 1009.1 |
| 20260506083042 | 15 | 287 | 0.0 | 4.8 | 0.00 | 0.00 | 0.00 | 77 | 1009.1 |
| 20260506082526 | 15 | 0 | 1.6 | 12.9 | 0.00 | 0.00 | 0.00 | 77 | 1009.1 |
| 20260506082026 | 15 | 0 | 0.0 | 12.9 | 0.00 | 0.00 | 0.00 | 77 | 1009.1 |
| 20260506081543 | 15 | 288 | 1.6 | 11.3 | 0.00 | 0.00 | 0.00 | 77 | 1009.1 |
| 20260506081027 | 15 | 252 | 0.0 | 4.8 | 0.00 | 0.00 | 0.00 | 77 | 1009.1 |
| 20260506080526 | 15 | 45 | 0.0 | 3.2 | 0.00 | 0.00 | 0.00 | 76 | 1009.2 |
| 20260506073526 | 16 | 120 | 0.0 | 6.4 | 0.00 | 0.00 | 0.00 | 74 | 1009.0 |
| 20260506073037 | 16 | 257 | 1.6 | 6.4 | 0.00 | 0.00 | 0.00 | 74 | 1009.0 |
| 20260506072523 | 16 | 0 | 0.0 | 6.4 | 0.00 | 0.00 | 0.00 | 74 | 1009.0 |
| 20260506072023 | 16 | 0 | 1.6 | 11.3 | 0.00 | 0.00 | 0.00 | 74 | 1009.0 |
| 20260506071541 | 16 | 214 | 0.0 | 11.3 | 0.00 | 0.00 | 0.00 | 73 | 1009.0 |
| 20260506071024 | 16 | 255 | 1.6 | 11.3 | 0.00 | 0.00 | 0.00 | 73 | 1008.9 |